, CO

(GMT )
Cottonwood Pass

Weather History for K7BM - October, 2013

Change the Weather History Date:

Sunday, October 6, 2013

  Actual Average Record
Temperature  
Mean Temperature 50 °F -  
Max Temperature 64 °F - - ()
Min Temperature 35 °F - - ()
Degree Days  
Heating Degree Days 16    
Moisture  
Dew Point 6 °F    
Average Humidity 19    
Maximum Humidity 39    
Minimum Humidity 9    
Precipitation  
Precipitation 0.00 in - - ()
Sea Level Pressure  
Sea Level Pressure 30.44 in    
Wind  
Wind Speed 3 mph (WNW)    
Max Wind Speed 10 mph    
Max Gust Speed -    
Visibility 10 miles    
Events      
T = Trace of Precipitation, MM = Missing Value Source: NWS Daily Summary

Daily Weather History Graph

Daily Weather History Graph

Search for Another Location

Airport or City:

Trip Planner

Search our weather history database for the weather conditions in past years. The results will help you decide how hot, cold, wet, or windy it might be!

Date:

Astronomy

Oct. 06, 2013 Rise Set
Actual Time 7:05 AM MDT 6:39 PM MDT
Civil Twilight 6:39 AM MDT 7:05 PM MDT
Nautical Twilight 6:08 AM MDT 7:36 PM MDT
Astronomical Twilight 5:37 AM MDT 8:07 PM MDT
Moon 8:51 AM MDT (10/6) 7:42 PM MDT (10/6)
Length of Visible Light 12h 26m
Length of Day
11h 33m
Waxing Crescent, 4% of the Moon is Illuminated
Oct 6
Waxing Crescent
Oct 11
First Quarter
Oct 18
Full
Oct 26
Last Quarter
Nov 3
New

Hourly Weather History & Observations

Time (MDT) Temp. Windchill Dew Point Humidity Pressure Visibility Wind Dir Wind Speed Gust Speed Precip Events Conditions
12:15 AM 35.6 °F - -0.4 °F 22% 30.41 in 10.0 mi Calm Calm - N/A   Clear
12:35 AM 35.6 °F 30.7 °F -5.8 °F 17% 30.41 in 10.0 mi North 5.8 mph - N/A   Clear
12:55 AM 35.6 °F 32.8 °F -5.8 °F 17% 30.41 in 10.0 mi NNW 3.5 mph - N/A   Clear
1:15 AM 35.6 °F 30.7 °F -7.6 °F 16% 30.41 in 10.0 mi NNW 5.8 mph - N/A   Clear
1:34 AM 35.6 °F 31.7 °F -9.4 °F 14% 30.42 in 10.0 mi NNW 4.6 mph - N/A   Clear
1:54 AM 35.6 °F 32.8 °F -9.4 °F 14% 30.42 in 10.0 mi NNW 3.5 mph - N/A   Clear
2:15 AM 35.6 °F 32.8 °F -13.0 °F 12% 30.42 in 10.0 mi NNW 3.5 mph - N/A   Clear
2:35 AM 35.6 °F 31.7 °F -13.0 °F 12% 30.41 in 10.0 mi NW 4.6 mph - N/A   Clear
2:55 AM 35.6 °F 29.9 °F -13.0 °F 12% 30.41 in 10.0 mi NNW 6.9 mph - N/A   Clear
3:15 AM 35.6 °F 32.8 °F -14.8 °F 11% 30.41 in 10.0 mi NNW 3.5 mph - N/A   Clear
3:35 AM 35.6 °F 29.9 °F -14.8 °F 11% 30.41 in 10.0 mi NW 6.9 mph - N/A   Clear
3:55 AM 35.6 °F 32.8 °F -14.8 °F 11% 30.41 in 10.0 mi NNW 3.5 mph - N/A   Clear
4:15 AM 37.4 °F - -16.6 °F 9% 30.41 in 10.0 mi Calm Calm - N/A   Clear
4:35 AM 37.4 °F 32.8 °F -16.6 °F 9% 30.41 in 10.0 mi WNW 5.8 mph - N/A   Clear
4:55 AM 35.6 °F 29.2 °F -7.6 °F 16% 30.42 in 10.0 mi SE 8.1 mph - N/A   Clear
5:15 AM 35.6 °F 29.2 °F -7.6 °F 16% 30.42 in 10.0 mi South 8.1 mph - N/A   Clear
5:35 AM 37.4 °F 33.8 °F -13.0 °F 11% 30.43 in 10.0 mi West 4.6 mph - N/A   Clear
5:55 AM 37.4 °F 32.1 °F -13.0 °F 11% 30.43 in 10.0 mi WNW 6.9 mph - N/A   Clear
6:15 AM 37.4 °F 34.9 °F -13.0 °F 11% 30.43 in 10.0 mi NNW 3.5 mph - N/A   Clear
6:35 AM 37.4 °F 33.8 °F -11.2 °F 12% 30.43 in 10.0 mi WNW 4.6 mph - N/A   Clear
6:55 AM 37.4 °F 32.8 °F -5.8 °F 16% 30.43 in 10.0 mi NW 5.8 mph - N/A   Clear
7:15 AM 39.2 °F 35.0 °F -4.0 °F 16% 30.43 in 10.0 mi WNW 5.8 mph - N/A   Clear
7:35 AM 39.2 °F 34.2 °F -4.0 °F 16% 30.43 in 10.0 mi WSW 6.9 mph - N/A   Clear
7:54 AM 41.0 °F 39.0 °F -0.4 °F 18% 30.44 in 10.0 mi West 3.5 mph - N/A   Clear
8:15 AM 41.0 °F - -0.4 °F 18% 30.45 in 10.0 mi Calm Calm - N/A   Clear
8:35 AM 42.8 °F - -0.4 °F 16% 30.46 in 10.0 mi Calm Calm - N/A   Clear
8:55 AM 42.8 °F - -4.0 °F 14% 30.46 in 10.0 mi Calm Calm - N/A   Clear
9:15 AM 42.8 °F - 3.2 °F 19% 30.46 in 10.0 mi Calm Calm - N/A   Clear
9:35 AM 46.4 °F - 3.2 °F 17% 30.46 in 10.0 mi Calm Calm - N/A   Clear
9:55 AM 46.4 °F - 6.8 °F 20% 30.47 in 10.0 mi Calm Calm - N/A   Clear
10:15 AM 46.4 °F 45.2 °F 6.8 °F 20% 30.46 in 10.0 mi South 3.5 mph - N/A   Clear
10:35 AM 50.0 °F - 8.6 °F 19% 30.46 in 10.0 mi Calm Calm - N/A   Clear
10:55 AM 50.0 °F - 10.4 °F 20% 30.46 in 10.0 mi Calm Calm - N/A   Clear
11:15 AM 51.8 °F - 14.0 °F 22% 30.46 in 10.0 mi Calm Calm - N/A   Clear
11:35 AM 53.6 °F - 14.0 °F 21% 30.46 in 10.0 mi Calm Calm - N/A   Clear
11:55 AM 55.4 °F - 10.4 °F 17% 30.46 in 10.0 mi NNW 4.6 mph - N/A   Clear
12:15 PM 55.4 °F - 12.2 °F 18% 30.45 in 10.0 mi SE 4.6 mph - N/A   Clear
12:35 PM 60.8 °F - 14.0 °F 16% 30.45 in 10.0 mi Calm Calm - N/A   Clear
12:55 PM 60.8 °F - 14.0 °F 16% 30.44 in 10.0 mi Calm Calm - N/A   Clear
1:15 PM 60.8 °F - 15.8 °F 17% 30.44 in 10.0 mi Calm Calm - N/A   Clear
1:35 PM 62.6 °F - 14.0 °F 15% 30.43 in 10.0 mi Calm Calm - N/A   Clear
1:55 PM 60.8 °F - 14.0 °F 16% 30.43 in 10.0 mi Calm Calm - N/A   Clear
2:15 PM 62.6 °F - 14.0 °F 15% 30.43 in 10.0 mi Calm Calm - N/A   Clear
2:35 PM 60.8 °F - 12.2 °F 15% 30.43 in 10.0 mi Calm Calm - N/A   Clear
2:55 PM 60.8 °F - 12.2 °F 15% 30.43 in 10.0 mi Calm Calm - N/A   Clear
3:15 PM 62.6 °F - 12.2 °F 14% 30.43 in 10.0 mi Calm Calm - N/A   Clear
3:35 PM 64.4 °F - 12.2 °F 13% 30.43 in 10.0 mi Calm Calm - N/A   Clear
3:55 PM 62.6 °F - 10.4 °F 13% 30.43 in 10.0 mi Calm Calm - N/A   Clear
4:15 PM 62.6 °F - 10.4 °F 13% 30.43 in 10.0 mi Calm Calm - N/A   Clear
4:35 PM 62.6 °F - 10.4 °F 13% 30.43 in 10.0 mi Calm Calm - N/A   Clear
4:55 PM 60.8 °F - 10.4 °F 14% 30.43 in 10.0 mi Calm Calm - N/A   Clear
5:15 PM 60.8 °F - 14.0 °F 16% 30.44 in 10.0 mi Calm Calm - N/A   Clear
5:35 PM 59.0 °F - 15.8 °F 19% 30.45 in 10.0 mi Calm Calm - N/A   Clear
5:55 PM 57.2 °F - 17.6 °F 21% 30.45 in 10.0 mi SE 3.5 mph - N/A   Clear
6:15 PM 53.6 °F - 15.8 °F 22% 30.45 in 10.0 mi SSW 4.6 mph - N/A   Clear
6:35 PM 53.6 °F - 14.0 °F 21% 30.45 in 10.0 mi South 4.6 mph - N/A   Clear
6:55 PM 53.6 °F - 12.2 °F 19% 30.45 in 10.0 mi West 5.8 mph - N/A   Clear
7:15 PM 53.6 °F - 17.6 °F 24% 30.46 in 10.0 mi West 10.4 mph - N/A   Clear
7:35 PM 51.8 °F - 19.4 °F 28% 30.46 in 10.0 mi West 9.2 mph - N/A   Clear
7:55 PM 51.8 °F - 19.4 °F 28% 30.47 in 10.0 mi West 9.2 mph - N/A   Clear
8:15 PM 51.8 °F - 21.2 °F 30% 30.47 in 10.0 mi WSW 8.1 mph - N/A   Clear
8:35 PM 51.8 °F - 19.4 °F 28% 30.48 in 10.0 mi Calm Calm - N/A   Clear
8:55 PM 50.0 °F - 19.4 °F 30% 30.48 in 10.0 mi WSW 6.9 mph - N/A   Clear
9:15 PM 51.8 °F - 19.4 °F 28% 30.49 in 10.0 mi Calm Calm - N/A   Clear
9:35 PM 50.0 °F - 19.4 °F 30% 30.49 in 10.0 mi SE 6.9 mph - N/A   Clear
9:55 PM 46.4 °F - 19.4 °F 34% 30.49 in 10.0 mi Calm Calm - N/A   Clear
10:15 PM 46.4 °F - 21.2 °F 37% 30.49 in 10.0 mi Calm Calm - N/A   Clear
10:35 PM 46.4 °F 44.3 °F 21.2 °F 37% 30.49 in 10.0 mi WNW 4.6 mph - N/A   Clear
10:55 PM 46.4 °F - 21.2 °F 37% 30.50 in 10.0 mi Calm Calm - N/A   Clear
11:14 PM 44.6 °F 39.7 °F 19.4 °F 37% 30.49 in 10.0 mi South 9.2 mph - N/A   Clear
11:35 PM 44.6 °F - 21.2 °F 39% 30.49 in 10.0 mi Calm Calm - N/A   Clear
11:55 PM 44.6 °F 40.7 °F 21.2 °F 39% 30.48 in 10.0 mi West 6.9 mph - N/A   Clear